• In Russia
  • List of Countries
  • For 7 days
  • Water Temperature
  • Satellite Maps
  • Weather Map
  • Weather Widgets
  • user-avatar
    Login

    Hourly Weather Naftalan

    Today, 23 September, Saturday

    Time Temperature Precipitation Wind Pressure Humidity
    00:00 +27°C° 0 mm 3 mps 761 mmHg 73%
    01:00 +27°C° 0 mm 2 mps 761 mmHg 74%
    02:00 +26°C° 0 mm 2 mps 762 mmHg 75%
    03:00 +26°C° 0 mm 2 mps 762 mmHg 78%
    04:00 +26°C° 0 mm 2 mps 762 mmHg 78%
    05:00 +26°C° 0 mm 2 mps 762 mmHg 78%
    06:00 +25°C° 0 mm 3 mps 762 mmHg 78%
    07:00 +27°C° 0 mm 3 mps 763 mmHg 66%
    08:00 +30°C° 0 mm 3 mps 763 mmHg 54%
    09:00 +33°C° 0 mm 5 mps 763 mmHg 44%
    10:00 +33°C° 0 mm 5 mps 763 mmHg 40%
    11:00 +34°C° 0 mm 6 mps 763 mmHg 37%
    12:00 +35°C° 0 mm 7 mps 763 mmHg 33%
    13:00 +35°C° 0 mm 7 mps 763 mmHg 33%
    14:00 +34°C° 0 mm 7 mps 763 mmHg 33%
    15:00 +34°C° 0 mm 7 mps 763 mmHg 36%
    16:00 +32°C° 0 mm 7 mps 763 mmHg 42%
    17:00 +30°C° 0 mm 7 mps 763 mmHg 48%
    18:00 +28°C° 0 mm 6 mps 763 mmHg 54%
    19:00 +27°C° 0 mm 6 mps 764 mmHg 56%
    20:00 +27°C° 0 mm 6 mps 764 mmHg 59%
    21:00 +26°C° 0 mm 7 mps 764 mmHg 62%
    22:00 +24°C° 0 mm 7 mps 764 mmHg 63%
    23:00 +24°C° 0 mm 7 mps 764 mmHg 65%

    Tomorrow, 24 September, Sunday

    Time Temperature Precipitation Wind Pressure Humidity
    00:00 +24°C° 0 mm 7 mps 764 mmHg 66%
    01:00 +23°C° 0 mm 7 mps 764 mmHg 68%
    02:00 +23°C° 0 mm 7 mps 764 mmHg 69%
    03:00 +22°C° 0 mm 6 mps 764 mmHg 71%
    04:00 +22°C° 0 mm 6 mps 765 mmHg 72%
    05:00 +22°C° 0 mm 6 mps 765 mmHg 74%
    06:00 +22°C° 0 mm 6 mps 765 mmHg 75%
    07:00 +23°C° 0 mm 6 mps 766 mmHg 67%
    08:00 +26°C° 0 mm 6 mps 766 mmHg 58%
    09:00 +28°C° 0 mm 6 mps 766 mmHg 50%
    10:00 +29°C° 0 mm 6 mps 766 mmHg 45%
    11:00 +30°C° 0 mm 6 mps 766 mmHg 40%
    12:00 +32°C° 0 mm 6 mps 766 mmHg 36%
    13:00 +32°C° 0 mm 6 mps 766 mmHg 37%
    14:00 +32°C° 0 mm 7 mps 766 mmHg 37%
    15:00 +32°C° 0 mm 7 mps 765 mmHg 38%
    16:00 +29°C° 0 mm 7 mps 766 mmHg 46%
    17:00 +28°C° 0 mm 7 mps 766 mmHg 53%
    18:00 +26°C° 0 mm 6 mps 766 mmHg 61%
    19:00 +24°C° 0 mm 6 mps 766 mmHg 64%
    20:00 +25°C° 0 mm 5 mps 766 mmHg 68%
    21:00 +23°C° 0 mm 5 mps 766 mmHg 71%
    22:00 +23°C° 0 mm 5 mps 766 mmHg 72%
    23:00 +23°C° 0 mm 4 mps 766 mmHg 73%

    Day after tomorrow, 25 September, Monday

    Time Temperature Precipitation Wind Pressure Humidity
    00:00 +22°C° 0 mm 4 mps 766 mmHg 74%
    01:00 +22°C° 0 mm 4 mps 766 mmHg 74%
    02:00 +22°C° 0 mm 4 mps 766 mmHg 74%
    03:00 +21°C° 0 mm 4 mps 766 mmHg 73%
    04:00 +21°C° 0 mm 4 mps 766 mmHg 74%
    05:00 +21°C° 0 mm 4 mps 766 mmHg 74%
    06:00 +21°C° 0 mm 4 mps 766 mmHg 74%
    07:00 +23°C° 0 mm 4 mps 767 mmHg 65%
    08:00 +25°C° 0 mm 4 mps 767 mmHg 57%
    09:00 +27°C° 0 mm 4 mps 767 mmHg 48%
    10:00 +28°C° 0 mm 3 mps 767 mmHg 44%
    11:00 +30°C° 0 mm 3 mps 767 mmHg 40%
    12:00 +31°C° 0 mm 3 mps 767 mmHg 36%
    13:00 +32°C° 0 mm 4 mps 766 mmHg 35%
    14:00 +32°C° 0 mm 5 mps 766 mmHg 34%
    15:00 +33°C° 0 mm 5 mps 766 mmHg 32%
    16:00 +30°C° 0 mm 6 mps 766 mmHg 36%
    17:00 +29°C° 0 mm 7 mps 766 mmHg 40%
    18:00 +27°C° 0 mm 8 mps 766 mmHg 44%
    19:00 +26°C° 0 mm 7 mps 766 mmHg 46%
    20:00 +26°C° 0 mm 7 mps 767 mmHg 48%
    21:00 +24°C° 0 mm 7 mps 767 mmHg 50%
    22:00 +23°C° 0 mm 7 mps 767 mmHg 52%
    23:00 +23°C° 0 mm 6 mps 767 mmHg 54%

    26 September, Tuesday

    Time Temperature Precipitation Wind Pressure Humidity
    00:00 +22°C° 0 mm 6 mps 767 mmHg 57%
    01:00 +22°C° 0 mm 6 mps 767 mmHg 59%
    02:00 +22°C° 0 mm 6 mps 767 mmHg 62%
    03:00 +21°C° 0 mm 6 mps 766 mmHg 64%
    04:00 +21°C° 0 mm 6 mps 766 mmHg 66%
    05:00 +21°C° 0 mm 6 mps 767 mmHg 69%
    06:00 +21°C° 0 mm 6 mps 767 mmHg 71%
    07:00 +22°C° 0 mm 7 mps 767 mmHg 66%
    08:00 +23°C° 0 mm 7 mps 767 mmHg 60%
    09:00 +24°C° 0 mm 7 mps 767 mmHg 55%
    10:00 +26°C° 0.1 mm 7 mps 767 mmHg 54%
    11:00 +26°C° 0.1 mm 7 mps 767 mmHg 53%
    12:00 +26°C° 0.1 mm 7 mps 767 mmHg 52%
    13:00 +26°C° 0 mm 7 mps 766 mmHg 52%
    14:00 +26°C° 0 mm 7 mps 766 mmHg 53%
    15:00 +24°C° 0 mm 7 mps 766 mmHg 53%
    16:00 +24°C° 0 mm 7 mps 766 mmHg 56%
    17:00 +23°C° 0 mm 7 mps 767 mmHg 58%
    18:00 +23°C° 0 mm 7 mps 767 mmHg 61%
    19:00 +23°C° 0.1 mm 7 mps 767 mmHg 63%
    20:00 +23°C° 0.1 mm 7 mps 767 mmHg 64%
    21:00 +22°C° 0.1 mm 6 mps 768 mmHg 66%
    22:00 +22°C° 0.2 mm 6 mps 767 mmHg 66%
    23:00 +22°C° 0.2 mm 6 mps 767 mmHg 67%

    27 September, Wednesday

    Time Temperature Precipitation Wind Pressure Humidity
    00:00 +22°C° 0.2 mm 6 mps 767 mmHg 67%
    01:00 +22°C° 0.1 mm 6 mps 767 mmHg 67%
    02:00 +22°C° 0.1 mm 6 mps 766 mmHg 67%
    03:00 +22°C° 0.1 mm 6 mps 766 mmHg 67%
    04:00 +22°C° 0.1 mm 5 mps 766 mmHg 67%
    05:00 +22°C° 0.1 mm 5 mps 766 mmHg 67%
    06:00 +22°C° 0.1 mm 5 mps 766 mmHg 67%
    07:00 +22°C° 0.1 mm 5 mps 766 mmHg 65%
    08:00 +22°C° 0.1 mm 5 mps 766 mmHg 64%
    09:00 +22°C° 0.1 mm 4 mps 766 mmHg 63%
    10:00 +23°C° 0 mm 5 mps 766 mmHg 61%
    11:00 +25°C° 0 mm 5 mps 766 mmHg 59%
    12:00 +25°C° 0 mm 5 mps 766 mmHg 57%
    13:00 +25°C° 0 mm 5 mps 765 mmHg 57%
    14:00 +25°C° 0 mm 5 mps 765 mmHg 58%
    15:00 +25°C° 0 mm 5 mps 765 mmHg 58%
    16:00 +23°C° 0 mm 6 mps 765 mmHg 60%
    17:00 +23°C° 0 mm 6 mps 766 mmHg 62%
    18:00 +22°C° 0 mm 6 mps 766 mmHg 64%
    19:00 +22°C° 0.2 mm 7 mps 766 mmHg 65%
    20:00 +22°C° 0.2 mm 7 mps 767 mmHg 66%
    21:00 +22°C° 0.2 mm 7 mps 767 mmHg 67%
    22:00 +21°C° 0.4 mm 8 mps 767 mmHg 69%
    23:00 +21°C° 0.4 mm 8 mps 767 mmHg 70%

    28 September, Thursday

    Time Temperature Precipitation Wind Pressure Humidity
    00:00 +21°C° 0.4 mm 8 mps 767 mmHg 72%
    01:00 +20°C° 0.4 mm 8 mps 767 mmHg 74%
    02:00 +20°C° 0.4 mm 8 mps 767 mmHg 75%
    03:00 +20°C° 0.4 mm 7 mps 767 mmHg 77%
    04:00 +20°C° 0.2 mm 7 mps 767 mmHg 77%
    05:00 +20°C° 0.2 mm 7 mps 767 mmHg 78%
    06:00 +20°C° 0.2 mm 7 mps 768 mmHg 78%
    07:00 +20°C° 0.6 mm 7 mps 768 mmHg 80%
    08:00 +20°C° 0.6 mm 7 mps 769 mmHg 81%
    09:00 +20°C° 0.6 mm 7 mps 769 mmHg 82%
    10:00 +20°C° 1 mm 7 mps 769 mmHg 81%
    11:00 +18°C° 1 mm 8 mps 769 mmHg 80%
    12:00 +18°C° 1 mm 8 mps 769 mmHg 79%
    13:00 +18°C° 0.7 mm 8 mps 769 mmHg 77%
    14:00 +18°C° 0.7 mm 9 mps 769 mmHg 75%
    15:00 +18°C° 0.7 mm 9 mps 769 mmHg 74%
    16:00 +18°C° 0.4 mm 9 mps 769 mmHg 74%
    17:00 +18°C° 0.4 mm 9 mps 769 mmHg 74%
    18:00 +18°C° 0.4 mm 9 mps 770 mmHg 75%
    19:00 +18°C° 0.2 mm 8 mps 770 mmHg 75%
    20:00 +18°C° 0.2 mm 8 mps 770 mmHg 76%
    21:00 +18°C° 0.2 mm 8 mps 770 mmHg 76%
    22:00 +18°C° 0.1 mm 7 mps 770 mmHg 75%
    23:00 +18°C° 0.1 mm 7 mps 769 mmHg 74%
    Show more